{"data":{"norad_id":60416,"epoch":"2026-05-24T23:40:36.261984Z","epoch_age_seconds":75911,"freshness":"FRESH","line1":"1 60416U 24141U   26144.98653081  .00000721  00000+0  34986-4 0  9999","line2":"2 60416  53.1608 238.1164 0001343  97.7514 262.3640 15.31700831101342","mean_motion":15.31700831,"eccentricity":0.0001343,"inclination_deg":53.1608,"raan_deg":238.1164,"arg_perigee_deg":97.7514,"mean_anomaly_deg":262.364,"bstar":3.4986e-5,"rev_number":10134,"period_min":94.013136955724,"perigee_km":469.81771421123,"apogee_km":471.65732190678,"semimajor_km":6848.874518059,"source":"CELESTRAK","updated_at":"2026-05-25T13:38:19.271275Z"}}